Preview of NWS' New Version of Forecast
This preview is not operational and should not be used for support decisions.

Regional Weather Roundup (RWR)

Issued by National Weather Service (NWS)

                            
000
ASUS44 KMEG 220900
RWRTN 
TENNESSEE HOURLY STATE WEATHER ROUNDUP
NATIONAL WEATHER SERVICE MEMPHIS TN
400 AM CDT WED MAY 22 2019

TNZ002-004-019-021-049-052-054-088>092-221000-
WEST TENNESSEE
  
CITY           SKY/WX    TMP DP  RH WIND       PRES   REMARKS
MEMPHIS INTL   CLOUDY    70  65  84 NW8       29.85R                  
NWS MEMPHIS      N/A     78 N/A N/A MISG        N/A                   
JACKSON        MOCLDY    76  66  71 S10G17    29.87R                  
DYERSBURG      LGT RAIN  66  63  90 N5        29.88R                  
$$

TNZ008-025-027-028-033-062-065-066-221000-
NORTH MIDDLE TENNESSEE
  
CITY           SKY/WX    TMP DP  RH WIND       PRES   REMARKS
NASHVILLE      FAIR      75  62  64 S13       29.92S                  
CLARKSVILLE    FAIR      75  63  66 S9        29.87R                  
SMYRNA         FAIR      72  63  73 S8        29.94S                  
CROSSVILLE     FAIR      65  59  81 S5        30.06R                  
$$

TNZ061-075-076-078-094-096-097-221000-
SOUTH MIDDLE TENNESSEE
  
CITY           SKY/WX    TMP DP  RH WIND       PRES   REMARKS
$$

TNZ017-018-042-046-047-221000-
NORTHEAST TENNESSEE
  
CITY           SKY/WX    TMP DP  RH WIND       PRES   REMARKS
TRI CITIES     FAIR      60  55  83 N3        30.09R                  
$$

TNZ012-013-036-069-073-074-221000-
CENTRAL EAST TENNESSEE
  
CITY           SKY/WX    TMP DP  RH WIND       PRES   REMARKS
KNOXVILLE      FAIR      66  60  81 NW3       30.02R                  
OAK RIDGE      FAIR      65  59  81 CALM      30.05R                  
$$

TNZ083-085-099-221000-
SOUTHEAST TENNESSEE
  
CITY           SKY/WX    TMP DP  RH WIND       PRES   REMARKS
CHATTANOOGA    MOCLDY    71  67  87 CALM      30.02R                  
$$

SKY/WX REPORTED AS FAIR MEANS FEW OR NO CLOUDS BELOW
12 THOUSAND FEET.